Weather History for Gadsden, AL

Change the Weather History Date:

Tuesday, February 19, 2013

  Actual Average Record
Temperature  
Mean Temperature 46 °F -  
Max Temperature 55 °F 55 °F 78 °F (1939)
Min Temperature 37 °F 35 °F 18 °F (1936)
Degree Days  
Heating Degree Days 19    
Moisture  
Dew Point 32 °F    
Average Humidity 60    
Maximum Humidity 93    
Minimum Humidity 29    
Precipitation  
Precipitation 0.41 in - - ()
Sea Level Pressure  
Sea Level Pressure 30.10 in    
Wind  
Wind Speed 8 mph (WNW)    
Max Wind Speed 21 mph    
Max Gust Speed 28 mph    
Visibility 9 miles    
Events      
Averages and records for this station are not official NWS values.
T = Trace of Precipitation, MM = Missing Value Source: NWS Daily Summary

Daily Weather History Graph

Daily Weather History Graph

Search for Another Location

Airport:

Trip Planner

Search our weather history database for the weather conditions in past years. The results will help you decide how hot, cold, wet, or windy it might be!

Date:

Astronomy

Feb. 19, 2013 Rise Set
Actual Time 6:24 AM CST 5:32 PM CST
Civil Twilight 5:59 AM CST 5:57 PM CST
Nautical Twilight 5:29 AM CST 6:26 PM CST
Astronomical Twilight 5:00 AM CST 6:55 PM CST
Moon 12:11 PM CST (2/19) 1:47 AM CST (2/19)
Length of Visible Light 11h 58m
Length of Day
11h 07m
Waxing Gibbous, 67% of the Moon is Illuminated
Feb 19
Waxing Gibbous
Feb 25
Full
Mar 4
Last Quarter
Mar 11
New
Mar 19
First Quarter

Hourly Weather History & Observations

Time (CST) Temp. Windchill Dew Point Humidity Pressure Visibility Wind Dir Wind Speed Gust Speed Precip Events Conditions
12:15 AM 51.8 °F - 26.6 °F 38% 29.98 in 10.0 mi South 13.8 mph 23.0 mph N/A   Overcast
12:35 AM 51.8 °F - 28.4 °F 41% 29.97 in 10.0 mi South 6.9 mph 17.3 mph N/A   Overcast
12:55 AM 48.2 °F - 33.8 °F 58% 29.99 in 10.0 mi South 6.9 mph - 0.05 in   Overcast
1:15 AM 46.4 °F - 37.4 °F 71% 30.00 in 9.0 mi Calm Calm - 0.05 in   Overcast
1:35 AM 44.6 °F 37.8 °F 39.2 °F 81% 30.03 in 9.0 mi NW 15.0 mph - 0.07 in   Overcast
1:55 AM 44.6 °F 40.7 °F 41.0 °F 87% 30.05 in 10.0 mi NW 6.9 mph - 0.18 in   Overcast
2:15 AM 44.6 °F 43.1 °F 41.0 °F 87% 30.06 in 9.0 mi WNW 3.5 mph - 0.05 in   Overcast
2:35 AM 44.6 °F - 41.0 °F 87% 30.04 in 10.0 mi Calm Calm - 0.10 in   Scattered Clouds
2:55 AM 44.6 °F - 41.0 °F 87% 30.04 in 10.0 mi Calm Calm - 0.11 in   Partly Cloudy
3:15 AM 44.6 °F 42.2 °F 42.8 °F 93% 30.02 in 7.0 mi East 4.6 mph - 0.03 in   Overcast
3:35 AM 44.6 °F 41.4 °F 42.8 °F 93% 30.02 in 10.0 mi ESE 5.8 mph - 0.05 in   Overcast
3:55 AM 44.6 °F 40.7 °F 42.8 °F 93% 30.01 in 7.0 mi SE 6.9 mph - 0.06 in   Overcast
4:15 AM 44.6 °F 43.1 °F 42.8 °F 93% 30.01 in 9.0 mi SE 3.5 mph - 0.01 in   Overcast
4:35 AM 44.6 °F 41.4 °F 41.0 °F 87% 29.99 in 10.0 mi East 5.8 mph - 0.01 in   Mostly Cloudy
4:55 AM 44.6 °F 42.2 °F 42.8 °F 93% 29.99 in 10.0 mi SSE 4.6 mph - 0.01 in   Overcast
5:15 AM 44.6 °F 41.4 °F 42.8 °F 93% 29.99 in 10.0 mi SE 5.8 mph - N/A   Overcast
5:55 AM 44.6 °F - 42.8 °F 93% 30.00 in 10.0 mi Calm Calm - N/A   Overcast
6:15 AM 44.6 °F - 42.8 °F 93% 30.01 in 10.0 mi Calm Calm - N/A   Overcast
6:35 AM 44.6 °F - 42.8 °F 93% 30.01 in 9.0 mi Calm Calm - N/A   Overcast
6:55 AM 44.6 °F - 42.8 °F 93% 30.03 in 9.0 mi Calm Calm - N/A   Overcast
7:15 AM 44.6 °F - 42.8 °F 93% 30.04 in 10.0 mi Calm Calm - N/A   Overcast
7:35 AM 44.6 °F - 42.8 °F 93% 30.05 in 2.5 mi Calm Calm - N/A   Overcast
7:55 AM 46.4 °F 43.5 °F 42.8 °F 87% 30.06 in 5.0 mi WSW 5.8 mph - N/A   Overcast
8:15 AM 46.4 °F 43.5 °F 44.6 °F 93% 30.07 in 2.5 mi West 5.8 mph - N/A   Overcast
8:35 AM 46.4 °F 45.2 °F 44.6 °F 93% 30.08 in 5.0 mi West 3.5 mph - N/A   Overcast
8:55 AM 48.2 °F - 46.4 °F 93% 30.08 in 10.0 mi WNW 6.9 mph - N/A   Overcast
9:35 AM 46.4 °F 41.9 °F 42.8 °F 87% 30.10 in 10.0 mi WNW 9.2 mph 19.6 mph N/A   Overcast
9:55 AM 48.2 °F - 42.8 °F 82% 30.10 in 10.0 mi WNW 11.5 mph 17.3 mph N/A   Scattered Clouds
10:15 AM 50.0 °F - 41.0 °F 71% 30.11 in 10.0 mi WNW 10.4 mph 19.6 mph N/A   Partly Cloudy
10:35 AM 50.0 °F - 39.2 °F 66% 30.12 in 10.0 mi WNW 11.5 mph 19.6 mph N/A   Partly Cloudy
10:55 AM 50.0 °F - 39.2 °F 66% 30.12 in 10.0 mi WNW 8.1 mph - N/A   Partly Cloudy
11:15 AM 51.8 °F - 39.2 °F 62% 30.12 in 10.0 mi WNW 13.8 mph 20.7 mph N/A   Partly Cloudy
11:35 AM 51.8 °F - 35.6 °F 54% 30.12 in 10.0 mi WNW 11.5 mph 18.4 mph N/A   Clear
12:15 PM 53.6 °F - 35.6 °F 51% 30.11 in 10.0 mi NW 13.8 mph 20.7 mph N/A   Clear
12:35 PM 55.4 °F - 35.6 °F 47% 30.10 in 10.0 mi West 11.5 mph 16.1 mph N/A   Clear
12:55 PM 55.4 °F - 33.8 °F 44% 30.10 in 10.0 mi NW 11.5 mph 17.3 mph N/A   Clear
1:15 PM 55.4 °F - 30.2 °F 38% 30.10 in 10.0 mi WNW 13.8 mph 20.7 mph N/A   Clear
1:35 PM 55.4 °F - 28.4 °F 36% 30.10 in 10.0 mi WNW 17.3 mph 26.5 mph N/A   Clear
1:55 PM 55.4 °F - 26.6 °F 33% 30.10 in 10.0 mi West 20.7 mph 26.5 mph N/A   Clear
2:15 PM 55.4 °F - 24.8 °F 31% 30.11 in 10.0 mi WNW 12.7 mph 18.4 mph N/A   Clear
2:35 PM 55.4 °F - 23.0 °F 29% 30.11 in 10.0 mi NW 15.0 mph 27.6 mph N/A   Clear
2:55 PM 53.6 °F - 24.8 °F 33% 30.11 in 10.0 mi WNW 12.7 mph 18.4 mph N/A   Clear
3:15 PM 53.6 °F - 23.0 °F 30% 30.11 in 10.0 mi NW 15.0 mph 20.7 mph N/A   Clear
3:35 PM 53.6 °F - 24.8 °F 33% 30.12 in 10.0 mi NW 11.5 mph - N/A   Clear
3:55 PM 53.6 °F - 24.8 °F 33% 30.12 in 10.0 mi NW 10.4 mph 19.6 mph N/A   Clear
4:15 PM 53.6 °F - 23.0 °F 30% 30.12 in 10.0 mi WNW 12.7 mph 18.4 mph N/A   Clear
4:35 PM 51.8 °F - 21.2 °F 30% 30.13 in 10.0 mi NW 6.9 mph - N/A   Clear
4:55 PM 51.8 °F - 21.2 °F 30% 30.14 in 10.0 mi WNW 11.5 mph - N/A   Clear
5:15 PM 48.2 °F - 19.4 °F 32% 30.15 in 10.0 mi NW 9.2 mph - N/A   Clear
6:35 PM 44.6 °F 41.4 °F 17.6 °F 34% 30.17 in 10.0 mi NW 5.8 mph - N/A   Clear
6:55 PM 44.6 °F 40.2 °F 17.6 °F 34% 30.17 in 10.0 mi NW 8.1 mph - N/A   Clear
7:15 PM 44.6 °F 40.2 °F 17.6 °F 34% 30.18 in 10.0 mi WNW 8.1 mph - N/A   Clear
7:35 PM 44.6 °F 41.4 °F 15.8 °F 31% 30.18 in 10.0 mi NW 5.8 mph - N/A   Clear
7:55 PM 42.8 °F 39.3 °F 15.8 °F 34% 30.17 in 10.0 mi WNW 5.8 mph - N/A   Clear
8:15 PM 41.0 °F 37.1 °F 17.6 °F 39% 30.18 in 10.0 mi WNW 5.8 mph - N/A   Clear
8:35 PM 41.0 °F 38.0 °F 17.6 °F 39% 30.19 in 10.0 mi WNW 4.6 mph - N/A   Clear
8:55 PM 39.2 °F 35.0 °F 19.4 °F 45% 30.21 in 10.0 mi West 5.8 mph - N/A   Clear
9:15 PM 39.2 °F 33.6 °F 19.4 °F 45% 30.21 in 10.0 mi WNW 8.1 mph - N/A   Clear
9:35 PM 39.2 °F 34.2 °F 17.6 °F 42% 30.22 in 10.0 mi NW 6.9 mph - N/A   Clear
9:55 PM 39.2 °F 34.2 °F 19.4 °F 45% 30.22 in 10.0 mi NNW 6.9 mph - N/A   Clear
10:15 PM 39.2 °F 33.0 °F 17.6 °F 42% 30.22 in 10.0 mi NNW 9.2 mph - N/A   Clear
10:55 PM 39.2 °F 33.6 °F 17.6 °F 42% 30.23 in 10.0 mi NW 8.1 mph - N/A   Clear
11:15 PM 39.2 °F 34.2 °F 17.6 °F 42% 30.24 in 10.0 mi NNW 6.9 mph - N/A   Clear
11:35 PM 37.4 °F 32.8 °F 17.6 °F 45% 30.23 in 10.0 mi NNW 5.8 mph - N/A   Clear
11:55 PM 37.4 °F 34.9 °F 19.4 °F 48% 30.24 in 10.0 mi NNW 3.5 mph - N/A   Clear